TimePST,TemperatureF,Dew PointF,Humidity,Sea Level PressureIn,VisibilityMPH,Wind Direction,Wind SpeedMPH,Gust SpeedMPH,PrecipitationIn,Events,Conditions,WindDirDegrees,DateUTC
12:01 AM,46.4,41.0,81,30.13,10.0,SSE,4.6,-,N/A,,Overcast,160,2012-12-11 08:01:00
12:53 AM,43.0,39.9,89,30.10,10.0,ESE,3.5,-,N/A,,Mostly Cloudy,120,2012-12-11 08:53:00
1:53 AM,44.1,39.0,82,30.06,10.0,Calm,Calm,-,N/A,,Overcast,0,2012-12-11 09:53:00
2:53 AM,43.0,39.0,86,30.02,10.0,Calm,Calm,-,N/A,,Overcast,0,2012-12-11 10:53:00
3:53 AM,43.0,39.0,86,30.00,10.0,Calm,Calm,-,N/A,,Overcast,0,2012-12-11 11:53:00
4:53 AM,43.0,37.9,82,29.94,10.0,SE,6.9,-,N/A,,Overcast,140,2012-12-11 12:53:00
5:53 AM,43.0,39.0,86,29.91,10.0,East,3.5,-,N/A,,Overcast,80,2012-12-11 13:53:00
6:14 AM,44.6,39.2,81,29.90,10.0,ESE,4.6,-,N/A,,Overcast,120,2012-12-11 14:14:00
6:53 AM,44.1,39.9,85,29.90,10.0,ESE,4.6,-,N/A,,Overcast,120,2012-12-11 14:53:00
7:21 AM,44.6,39.2,81,29.88,10.0,SE,3.5,-,N/A,,Overcast,130,2012-12-11 15:21:00
7:40 AM,44.6,41.0,87,29.88,10.0,Calm,Calm,-,N/A,,Overcast,0,2012-12-11 15:40:00
7:53 AM,46.0,41.0,83,29.87,10.0,SSE,4.6,-,N/A,,Overcast,160,2012-12-11 15:53:00
8:33 AM,44.6,41.0,87,29.87,8.0,SSE,4.6,-,N/A,,Overcast,160,2012-12-11 16:33:00
8:53 AM,45.0,42.1,90,29.87,10.0,SSE,3.5,-,N/A,,Overcast,150,2012-12-11 16:53:00
9:53 AM,46.0,42.1,86,29.83,10.0,SSE,5.8,-,0.00,,Overcast,160,2012-12-11 17:53:00
10:53 AM,46.9,41.0,80,29.79,10.0,Calm,Calm,-,0.00,,Overcast,0,2012-12-11 18:53:00
11:16 AM,46.4,41.0,81,29.77,10.0,Calm,Calm,-,0.00,Rain,Light Rain,0,2012-12-11 19:16:00
11:39 AM,46.4,41.0,81,29.77,10.0,SW,9.2,-,0.00,Rain,Light Rain,220,2012-12-11 19:39:00
11:53 AM,46.9,41.0,80,29.77,10.0,SSW,10.4,-,0.01,Rain,Light Rain,210,2012-12-11 19:53:00
12:42 PM,46.4,41.0,81,29.74,10.0,SSW,10.4,-,0.01,Rain,Light Rain,210,2012-12-11 20:42:00
12:53 PM,46.9,41.0,80,29.73,10.0,SSW,10.4,-,0.01,Rain,Light Rain,210,2012-12-11 20:53:00
1:53 PM,46.0,39.9,79,29.70,10.0,SSW,12.7,18.4,0.01,Rain,Light Rain,200,2012-12-11 21:53:00
2:29 PM,46.4,39.2,76,29.69,6.0,SSW,6.9,-,0.03,Rain,Light Rain,200,2012-12-11 22:29:00
2:53 PM,46.0,39.9,79,29.68,7.0,South,11.5,-,0.08,Rain,Light Rain,180,2012-12-11 22:53:00
3:53 PM,46.0,39.0,76,29.66,10.0,Calm,Calm,-,0.01,,Overcast,0,2012-12-11 23:53:00
4:53 PM,45.0,39.9,82,29.64,10.0,Calm,Calm,-,0.00,,Overcast,0,2012-12-12 00:53:00
5:34 PM,44.6,39.2,81,29.63,10.0,Calm,Calm,-,N/A,,Overcast,0,2012-12-12 01:34:00
5:53 PM,45.0,39.9,82,29.63,10.0,East,3.5,-,N/A,,Overcast,90,2012-12-12 01:53:00
6:50 PM,44.6,39.2,81,29.63,10.0,Calm,Calm,-,N/A,,Overcast,0,2012-12-12 02:50:00
6:53 PM,45.0,39.9,82,29.63,10.0,Calm,Calm,-,N/A,,Overcast,0,2012-12-12 02:53:00
7:12 PM,46.4,39.2,76,29.63,10.0,Variable,4.6,-,0.00,Rain,Light Rain,0,2012-12-12 03:12:00
7:35 PM,44.6,41.0,87,29.62,10.0,SW,6.9,-,0.00,Rain,Light Rain,220,2012-12-12 03:35:00
7:53 PM,46.0,41.0,83,29.62,10.0,WSW,9.2,-,0.00,,Overcast,240,2012-12-12 03:53:00
8:07 PM,46.4,41.0,81,29.63,10.0,WSW,8.1,-,0.00,Rain,Light Rain,240,2012-12-12 04:07:00
8:21 PM,46.4,41.0,81,29.63,10.0,SW,8.1,-,0.00,Rain,Light Rain,230,2012-12-12 04:21:00
8:35 PM,46.4,41.0,81,29.63,10.0,WSW,4.6,-,0.00,,Overcast,250,2012-12-12 04:35:00
8:53 PM,46.0,41.0,83,29.64,10.0,West,3.5,-,0.00,,Overcast,260,2012-12-12 04:53:00
9:16 PM,46.4,41.0,81,29.64,10.0,WSW,8.1,-,N/A,,Overcast,250,2012-12-12 05:16:00
9:53 PM,45.0,42.1,90,29.65,10.0,WSW,6.9,-,0.00,Rain,Light Rain,250,2012-12-12 05:53:00
10:53 PM,45.0,41.0,86,29.67,10.0,Calm,Calm,-,0.00,,Mostly Cloudy,0,2012-12-12 06:53:00
11:53 PM,45.0,41.0,86,29.69,10.0,SW,5.8,-,N/A,,Overcast,230,2012-12-12 07:53:00